Overview Statistics Trail Chart Weather Telemetry Raw packets
 

This is the latest recevied weather packets stored in our database for station/object SP6FIG-13. If no packets are shown the sender has not sent any weather packets the latest 10 day(s).

<< 1 2 3 4 5 >>
Time Temp. Humidity Pressure Rain* Wind** Luminosity Snow
1788608487 23.89° C 39% 1019.2 hPa - - - -
1788608187 23.89° C 40% 1019.8 hPa - - - -
1788607887 23.89° C 43% 1019.8 hPa - - - -
1788607587 23.89° C 44% 1019.5 hPa - - - -
1788607287 23.89° C 44% 1019.4 hPa - - - -
1788606987 23.89° C 45% 1019.6 hPa - - - -
1788606687 23.89° C 42% 1019.3 hPa - - - -
1788606397 23.89° C 40% 1019.8 hPa - - - -
1788606087 23.89° C 40% 1019.8 hPa - - - -
1788605790 23.89° C 43% 1019.6 hPa - - - -
1788605487 23.89° C 40% 1019.3 hPa - - - -
1788605187 23.89° C 40% 1019.5 hPa - - - -
1788604897 23.89° C 40% 1019.7 hPa - - - -
1788604587 23.89° C 41% 1019.5 hPa - - - -
1788604287 23.89° C 42% 1019.4 hPa - - - -
1788603987 23.89° C 41% 1019.1 hPa - - - -
1788603687 23.33° C 41% 1019.4 hPa - - - -
1788603387 23.33° C 42% 1019.3 hPa - - - -
1788603087 23.33° C 42% 1019.2 hPa - - - -
1788602787 23.33° C 42% 1019.2 hPa - - - -
1788602487 23.33° C 41% 1019.3 hPa - - - -
1788602187 23.33° C 42% 1019.5 hPa - - - -
1788601887 23.33° C 42% 1019.5 hPa - - - -
1788601587 23.33° C 42% 1019.5 hPa - - - -
1788601287 23.33° C 42% 1019.4 hPa - - - -

* Rain since midnight (hover to see other rain measurements)
** Current wind speed in m/s (hover to see current wind gust speed)